Moose, Wyoming, United States (83012)
Lat: 43.66N, Lon: 110.72W
Wx Zone: WYZ013
Local Info
Past Weather Observations for Monday, December 15, 2014

NOTE: This archive is for the closest National Weather Service station to Moose. Information may differ from the station used for current weather conditions.

Click here for Long-term Archive

Time Weather Temperature Dewpoint Humidity Pressure Winds Precip Visibility
23:55
Overcast
7°F / -14°C 7°F / -14°C 100% 30.15 in
(1021 mb)
N 3.5 mph
(N 6 kph)
- 10SM
23:35
Overcast
7°F / -14°C 5°F / -15°C 92% 30.15 in
(1021 mb)
N 5.8 mph
(N 9 kph)
- 10SM
23:15
Mostly Cloudy
5°F / -15°C 5°F / -15°C 100% 30.15 in
(1021 mb)
N 4.6 mph
(N 7 kph)
- 10SM
22:55
Clear
7°F / -14°C 7°F / -14°C 100% 30.15 in
(1021 mb)
Calm - 10SM
22:35
Clear
5°F / -15°C 5°F / -15°C 100% 30.15 in
(1021 mb)
NNW 3.5 mph
(NNW 6 kph)
- 10SM
22:15
Clear
7°F / -14°C 5°F / -15°C 92% 30.15 in
(1021 mb)
N 6.9 mph
(N 11 kph)
- 10SM
21:55
Clear
7°F / -14°C 5°F / -15°C 92% 30.15 in
(1021 mb)
N 4.6 mph
(N 7 kph)
- 10SM
21:35
Clear
7°F / -14°C 7°F / -14°C 100% 30.15 in
(1021 mb)
N 6.9 mph
(N 11 kph)
- 10SM
21:15
Clear
9°F / -13°C 9°F / -13°C 100% 30.15 in
(1021 mb)
N 3.5 mph
(N 6 kph)
- 10SM
19:55
Clear
10°F / -12°C 10°F / -12°C 100% 30.15 in
(1021 mb)
Calm - 10SM
18:51
Clear
14°F / -10°C 12°F / -11°C 92% 30.15 in
(1021 mb)
E 3.5 mph
(E 6 kph)
- 10SM
17:51
Clear
18°F / -8°C 16°F / -9°C 93% 30.15 in
(1021 mb)
Calm - 10SM
16:51
Overcast
25°F / -4°C 21°F / -6°C 86% 30.15 in
(1021 mb)
Calm - 10SM
15:51
Overcast
27°F / -3°C 21°F / -6°C 80% 30.15 in
(1021 mb)
Calm - 10SM
14:51
Overcast
27°F / -3°C 21°F / -6°C 80% 30.15 in
(1021 mb)
Calm - 10SM
13:51
Overcast
27°F / -3°C 21°F / -6°C 80% 30.15 in
(1021 mb)
Calm - 10SM
12:51
Overcast
27°F / -3°C 23°F / -5°C 86% 30.15 in
(1021 mb)
Calm - 10SM
11:51
Overcast
25°F / -4°C 23°F / -5°C 93% 30.18 in
(1022 mb)
Calm - 10SM
10:52
Overcast
21°F / -6°C 21°F / -6°C 100% 30.18 in
(1022 mb)
Calm - 9SM
09:51
Overcast
21°F / -6°C 21°F / -6°C 100% 30.18 in
(1022 mb)
Calm - 9SM
08:52
Overcast
19°F / -7°C 19°F / -7°C 100% 30.15 in
(1021 mb)
Calm - 10SM
08:03
Overcast
Fog And Mist
19°F / -7°C 19°F / -7°C 100% 30.15 in
(1021 mb)
Calm - 3SM
07:52
Overcast
Fog And Mist
18°F / -8°C 18°F / -8°C 100% 30.15 in
(1021 mb)
Calm - 1SM
07:02
Overcast
Fog And Mist
16°F / -9°C 16°F / -9°C 100% 30.15 in
(1021 mb)
Calm - 1 1/2SM
06:52
Overcast
Fog
18°F / -8°C 18°F / -8°C 100% 30.15 in
(1021 mb)
Calm - 1/4SM
06:35
Overcast
18°F / -8°C 16°F / -9°C 93% 30.12 in
(1020 mb)
Calm - 3/4SM
06:15
Overcast
18°F / -8°C 18°F / -8°C 100% 30.12 in
(1020 mb)
Calm - 1SM
05:55
Overcast
19°F / -7°C 19°F / -7°C 100% 30.12 in
(1020 mb)
Calm - 3SM
05:35
Mostly Cloudy
19°F / -7°C 19°F / -7°C 100% 30.12 in
(1020 mb)
Calm - 8SM
05:15
Mostly Cloudy
19°F / -7°C 19°F / -7°C 100% 30.12 in
(1020 mb)
Calm - 3SM
04:55
Overcast
19°F / -7°C 19°F / -7°C 100% 30.12 in
(1020 mb)
Calm - 10SM
04:35
Partly Cloudy
19°F / -7°C 19°F / -7°C 100% 30.12 in
(1020 mb)
Calm - 10SM
04:15
Mostly Cloudy
21°F / -6°C 19°F / -7°C 93% 30.12 in
(1020 mb)
Calm - 10SM
03:55
Overcast
21°F / -6°C 21°F / -6°C 100% 30.12 in
(1020 mb)
N 4.6 mph
(N 7 kph)
- 10SM
03:35
Overcast
19°F / -7°C 18°F / -8°C 93% 30.12 in
(1020 mb)
Calm - 10SM
03:15
Mostly Cloudy
21°F / -6°C 21°F / -6°C 100% 30.12 in
(1020 mb)
N 4.6 mph
(N 7 kph)
- 10SM
02:55
Mostly Cloudy
21°F / -6°C 21°F / -6°C 100% 30.12 in
(1020 mb)
Calm 0.01 in
(0.25 mm)
7SM
02:35
Overcast
21°F / -6°C 21°F / -6°C 100% 30.12 in
(1020 mb)
Calm 0.01 in
(0.25 mm)
7SM
02:15
Mostly Cloudy
21°F / -6°C 19°F / -7°C 93% 30.12 in
(1020 mb)
Calm 0.01 in
(0.25 mm)
6SM
01:55
Overcast
23°F / -5°C 23°F / -5°C 100% 30.09 in
(1019 mb)
Calm 0.01 in
(0.25 mm)
8SM
01:35
Overcast
25°F / -4°C 25°F / -4°C 100% 30.09 in
(1019 mb)
Calm 0.01 in
(0.25 mm)
10SM
01:15
Overcast
23°F / -5°C 23°F / -5°C 100% 30.09 in
(1019 mb)
Calm - 7SM
00:55
Overcast
23°F / -5°C 23°F / -5°C 100% 30.09 in
(1019 mb)
Calm 0.01 in
(0.25 mm)
4SM
00:35
Overcast
23°F / -5°C 21°F / -6°C 93% 30.09 in
(1019 mb)
Calm - 3SM
00:15
Overcast
23°F / -5°C 21°F / -6°C 93% 30.09 in
(1019 mb)
Calm - 4SM
Time Weather Temperature Dewpoint Humidity Pressure Winds Precip Visibility


Weather for websites

WeatherForYou.com, LLC is not responsible for any damages or problems caused by this service. Current weather conditions are obtained from the closest station including government and personal stations which may have varying degrees of accuracy. Weather forecasts are derived from the NOAA NDFD. Like all things, this site belongs to Jesus Christ... He just trusts me to maintain it. If you have any questions or comments email webmaster@weatherforyou.com

Copyright © 2014, WeatherForYou.com LLC. All rights reserved.